GFSGBSN_sfc_thetae_129.txt.gz
Theta_e
325 324 324 323 322 322 322 322 322 322 323 323 324 323 323 323 323 323 323 324 324 325 326 327 327 327 319 307 306 315 340 337 326 317 310 307 302 300 297 298 299 296 299 303 304 303 303
326 325 324 324 324 323 322 323 323 322 322 323 324 323 323 322 321 322 322 323 324 324 325 326 326 325 310 300 315 317 320 318 316 313 310 308 304 304 300 299 297 300 301 301 302 302 303
328 326 325 325 325 325 324 324 323 323 323 323 323 324 323 321 322 321 322 322 323 323 325 325 326 321 311 306 312 313 319 311 313 313 309 310 309 303 303 299 304 302 297 298 299 301 301
331 329 327 327 326 326 325 325 324 324 323 323 323 323 323 322 321 321 321 323 323 323 325 325 326 315 301 315 312 313 313 311 313 314 313 312 311 307 303 304 298 295 292 288 295 300 301
328 329 330 329 328 327 327 326 326 325 324 323 323 323 323 322 321 320 322 321 323 323 326 326 313 309 301 317 309 312 312 310 311 311 312 315 309 303 301 292 287 290 285 287 291 298 299
325 325 326 327 329 329 328 327 326 325 325 323 323 323 323 322 321 320 320 320 321 320 321 323 320 305 307 304 308 311 310 312 308 308 306 305 300 295 292 287 282 285 284 288 287 294 297
320 321 323 324 325 327 329 329 327 326 325 324 323 323 323 322 321 319 315 306 302 300 308 300 302 304 303 308 311 307 311 309 307 302 295 299 294 289 291 292 291 289 288 287 291 297 296
317 317 318 320 322 323 324 325 328 327 326 325 324 323 322 322 320 318 311 303 303 304 297 306 307 307 307 306 302 305 309 302 301 295 296 291 290 296 295 294 292 290 288 287 292 298 296
315 315 316 317 318 320 320 320 321 323 326 325 324 323 322 321 318 309 305 306 309 309 295 301 307 305 305 306 301 301 306 301 296 293 292 289 293 297 294 292 290 288 288 288 289 294 295
315 315 315 315 316 316 317 318 319 319 322 324 324 322 322 319 307 303 304 312 311 309 287 292 301 304 306 306 300 307 306 301 296 292 293 291 295 294 292 290 291 285 293 293 292 290 285
315 315 315 314 314 315 316 318 318 320 321 321 323 322 320 316 303 299 306 309 311 301 279 296 300 308 305 302 301 301 304 300 293 294 292 290 291 291 290 290 292 290 294 293 292 289 287
315 314 314 315 314 314 316 316 317 319 321 321 321 322 319 309 308 307 306 309 306 289 281 294 300 299 298 299 300 302 300 301 299 294 292 292 295 293 291 293 294 296 294 291 291 289 283
315 314 314 313 313 315 315 315 316 316 318 319 319 320 317 311 298 307 306 304 288 281 294 294 295 297 295 294 296 297 295 292 290 286 285 290 291 294 295 290 293 293 287 278 280 277 279
314 314 314 313 313 313 314 313 313 314 317 317 318 318 320 314 310 307 304 297 280 288 292 298 296 294 292 294 294 294 291 289 292 289 286 284 283 291 293 290 287 288 287 276 270 272 276
313 313 314 314 313 313 313 313 314 313 315 315 316 315 314 314 315 305 297 288 287 290 295 295 294 289 289 293 292 291 290 290 292 291 286 284 285 291 291 294 293 288 285 290 282 280 278
312 312 312 312 313 313 313 312 312 313 313 314 309 309 308 315 313 300 292 290 293 298 299 296 290 291 287 289 289 289 288 292 293 293 291 289 283 289 292 294 294 289 294 284 282 274 275
310 310 311 311 312 312 312 311 312 312 313 313 306 302 310 311 307 294 284 285 293 300 300 295 293 290 290 289 289 288 289 292 294 293 292 288 285 284 288 288 288 289 287 286 286 283 278
309 309 309 310 311 311 311 310 310 311 311 308 302 293 308 308 292 289 285 289 298 296 299 298 295 293 291 291 288 288 289 291 296 294 290 289 284 282 285 289 292 290 288 286 280 279 281
309 309 309 309 310 310 310 309 309 310 309 300 295 298 309 305 287 285 289 289 293 293 295 295 295 296 294 291 288 290 290 295 295 293 290 290 284 280 282 286 288 286 288 286 284 282 280
308 308 308 308 309 309 309 309 309 310 310 302 295 290 298 298 295 293 288 288 287 293 293 296 295 295 292 290 291 289 289 293 295 295 302 296 285 284 282 283 286 283 287 286 284 278 279
307 308 307 307 308 308 309 308 308 309 310 302 295 291 297 289 290 291 292 291 288 287 292 294 293 293 292 288 288 288 289 290 293 303 292 290 284 284 286 288 288 288 286 285 283 283 282
307 307 307 307 307 308 308 308 308 309 308 299 291 291 296 294 293 291 292 289 289 289 289 289 289 293 293 291 291 288 289 288 289 291 288 288 284 285 283 287 288 286 287 287 285 284 284
306 306 306 306 307 307 307 308 308 308 307 298 296 300 297 292 292 290 290 291 290 293 291 292 291 290 291 294 295 295 294 293 292 290 286 287 284 282 280 284 285 283 286 287 286 286 287
305 305 304 305 305 306 307 307 307 308 307 302 299 297 292 287 290 291 292 293 292 294 291 292 292 290 294 297 296 294 292 291 291 289 289 285 284 283 280 282 278 286 290 290 289 289 288
305 305 305 305 306 306 306 307 307 308 307 302 302 297 294 287 292 291 293 294 294 295 294 293 295 295 298 294 289 287 286 286 286 287 287 287 285 281 280 279 284 287 290 289 288 289 291
304 304 305 305 306 305 306 306 307 307 307 304 302 303 297 288 289 294 292 294 291 291 293 295 298 299 296 292 289 283 281 284 282 283 287 287 286 284 280 279 280 287 290 293 291 284 292
303 304 304 305 305 305 305 306 306 307 307 304 302 304 298 291 292 294 292 293 296 294 291 293 294 293 295 291 286 282 282 286 281 281 282 282 281 280 281 280 284 291 293 292 284 287 291
303 303 304 304 304 305 305 306 306 306 307 304 300 303 298 293 293 295 296 293 293 295 289 292 292 292 290 287 290 285 282 284 283 284 283 282 280 280 280 279 282 293 291 288 292 291 293
302 303 303 304 304 305 305 305 306 306 306 306 297 302 304 296 294 300 300 301 301 300 295 294 293 292 293 289 287 287 284 282 282 279 284 283 285 283 286 286 292 294 291 294 294 294 293

GFSGBSN_sfc_thetae_132.txt.gz
Theta_e
327 326 325 324 324 324 323 323 323 323 322 323 323 324 324 323 322 321 322 323 324 325 325 327 327 327 317 302 305 313 341 338 323 315 309 305 301 299 296 297 298 294 298 301 302 302 302
330 327 326 325 325 325 325 324 324 324 323 323 323 324 324 323 321 321 321 322 323 324 324 327 326 326 307 297 312 318 319 316 315 311 308 306 303 303 299 298 296 298 300 300 301 301 301
331 330 328 327 327 326 326 325 325 324 324 323 323 324 324 323 322 321 320 320 321 323 324 326 326 320 309 303 310 316 315 311 312 312 307 309 307 303 302 298 302 300 296 296 297 298 299
327 328 329 330 329 328 327 327 326 326 325 324 324 323 323 323 322 321 320 320 321 323 324 325 326 313 300 311 311 312 314 310 312 313 312 311 309 305 302 302 296 292 291 287 293 297 299
324 325 325 326 326 328 329 328 327 326 326 325 324 323 322 322 322 322 321 320 322 322 325 326 313 305 298 316 308 310 311 309 310 310 310 313 308 301 300 290 286 288 284 286 290 296 298
320 320 321 322 324 324 325 326 327 328 326 325 325 324 323 323 322 322 320 319 322 321 320 322 319 302 305 303 308 309 308 311 307 307 305 304 298 294 291 287 281 283 284 286 286 292 295
316 317 317 318 320 321 322 322 322 323 325 326 325 324 323 323 322 321 314 305 301 299 306 301 300 301 301 306 309 305 309 308 306 301 294 297 293 289 292 291 289 288 286 286 289 294 295
316 316 316 316 317 318 319 319 319 319 321 323 325 325 323 322 321 319 310 302 302 304 298 304 305 307 307 305 301 304 309 302 300 295 295 291 289 295 295 293 291 289 286 286 291 295 294
316 316 316 316 315 316 316 316 317 318 320 321 323 324 323 322 320 306 300 304 309 307 295 298 304 304 305 305 300 300 306 300 296 293 292 288 291 296 294 291 289 287 286 286 288 292 293
316 316 316 315 315 315 315 315 315 317 320 322 322 322 323 320 304 302 302 307 310 306 287 290 300 304 304 304 299 305 306 301 294 293 291 290 294 293 291 289 290 284 291 291 291 288 283
316 316 316 315 315 315 315 315 314 315 317 318 320 320 320 317 305 301 304 306 309 299 279 295 299 307 303 301 300 300 303 298 293 293 292 290 290 290 289 290 291 287 293 292 291 287 286
316 316 315 315 315 314 315 315 314 314 315 317 318 318 318 313 308 308 307 307 305 287 279 292 299 298 297 298 298 300 299 300 298 294 291 291 293 292 291 292 292 295 292 290 289 288 282
316 315 315 315 314 313 314 314 313 313 313 315 316 317 316 316 300 307 306 305 290 281 292 292 293 296 294 293 295 296 294 291 289 285 285 288 290 292 294 289 292 291 287 278 278 278 279
314 314 314 314 313 313 313 313 312 313 313 314 314 315 314 316 313 306 305 297 281 288 289 297 295 294 292 293 293 293 291 288 290 288 284 284 282 290 293 288 287 287 286 277 270 271 275
313 313 313 313 312 312 312 312 312 312 313 313 313 307 311 316 319 309 298 290 285 287 293 295 293 288 289 291 291 289 289 288 291 290 286 283 284 290 291 293 292 287 285 288 280 279 277
312 312 313 312 312 312 310 310 311 311 313 312 302 301 302 314 317 305 291 287 291 296 299 296 291 291 287 288 289 288 287 291 292 292 290 288 282 287 290 293 293 289 292 285 281 274 275
312 311 311 311 311 311 311 310 310 310 311 311 298 294 304 312 309 297 286 285 289 298 300 294 293 291 290 288 289 287 288 291 293 291 291 287 284 283 287 286 287 289 287 285 285 282 278
312 311 310 310 311 311 311 310 309 310 310 304 295 286 303 306 295 292 287 290 294 293 296 297 295 294 290 290 288 287 288 289 294 292 289 288 284 280 284 287 291 289 287 286 280 279 280
311 311 311 311 311 310 310 309 309 310 308 297 293 290 302 303 288 287 290 292 293 290 292 294 295 295 293 290 288 289 289 294 294 292 289 289 283 279 281 285 286 285 286 286 283 282 279
311 311 312 311 310 309 309 309 308 309 309 299 293 286 290 297 296 291 290 290 290 293 291 292 293 295 292 289 289 288 288 292 294 293 300 295 284 283 282 282 285 283 285 285 284 278 278
310 309 311 309 308 309 308 309 308 309 309 300 294 288 289 286 288 291 293 292 290 289 292 292 290 290 291 288 287 287 287 289 293 303 291 289 284 284 285 286 286 285 285 284 282 282 281
308 307 308 308 307 308 308 308 308 308 308 298 290 289 289 287 290 289 290 288 289 291 291 288 287 291 291 290 291 288 289 287 289 292 289 287 284 284 282 286 287 286 287 285 284 283 283
307 306 306 307 307 307 307 307 308 307 306 296 297 298 292 287 286 286 288 289 291 292 294 293 291 289 288 290 294 294 293 293 292 290 286 286 284 282 279 284 284 282 285 287 285 285 286
306 306 306 306 306 305 306 305 307 307 306 299 298 297 290 284 286 286 288 290 291 293 291 294 294 290 292 295 294 294 292 291 291 288 289 284 284 282 279 281 278 286 288 289 289 289 287
305 305 304 305 305 305 305 305 306 307 307 301 301 296 291 284 287 287 289 289 293 294 294 294 295 297 299 293 289 287 287 287 286 286 285 286 285 280 280 278 283 286 288 288 286 288 291
303 303 304 304 304 304 305 305 306 306 306 303 301 302 295 287 286 291 290 290 287 289 291 294 299 300 297 291 288 284 282 285 282 283 285 286 285 284 278 279 279 287 290 292 291 285 291
302 303 303 304 304 304 305 305 305 306 306 303 300 302 295 287 291 293 289 290 294 293 290 293 295 294 297 287 285 284 284 287 281 281 281 281 282 280 280 279 283 289 292 292 285 288 290
301 302 303 303 303 304 305 305 305 305 306 303 300 302 296 287 291 294 295 293 292 290 289 294 293 293 290 285 286 287 283 285 283 283 282 282 280 279 280 279 281 292 290 288 292 290 292
302 302 302 303 303 304 304 304 305 305 305 305 297 301 302 294 290 299 298 299 298 297 293 295 294 291 290 288 289 288 283 282 284 279 282 283 285 283 285 285 292 294 291 293 293 293 292

GFSGBSN_sfc_thetae_138.txt.gz
Theta_e
332 330 329 328 327 327 326 326 325 325 324 324 324 324 324 324 323 324 324 324 324 323 323 324 326 327 322 309 309 323 345 343 327 320 315 313 310 310 306 307 307 304 306 307 308 308 308
328 329 329 329 330 329 328 328 327 326 326 326 325 325 325 324 324 323 323 324 324 322 322 324 326 327 315 304 318 325 326 325 320 317 314 313 310 311 307 307 306 307 307 308 309 308 308
323 324 325 326 327 328 328 328 328 328 327 327 327 327 326 325 324 324 324 324 323 322 323 325 326 322 313 308 319 328 323 319 320 317 312 315 314 310 310 306 309 307 304 306 307 306 306
319 320 321 322 323 324 324 323 323 323 326 328 329 328 327 326 325 325 324 324 323 324 323 325 326 321 306 316 322 322 320 317 319 319 317 317 316 311 309 310 305 302 302 298 303 303 306
318 318 318 318 319 320 321 321 321 321 321 323 324 325 327 327 326 326 325 324 322 323 325 325 318 313 304 319 314 319 319 314 317 317 318 316 315 310 308 304 299 300 295 296 298 303 303
317 317 318 317 317 317 317 317 317 318 319 322 323 324 324 325 326 325 324 321 322 321 323 323 321 308 309 307 314 316 319 317 313 314 312 311 310 306 305 302 294 294 294 295 295 300 302
318 317 317 317 317 317 317 316 316 316 317 318 321 322 321 322 323 324 317 315 310 308 313 307 307 306 306 312 315 313 316 314 313 310 303 307 302 299 302 304 302 299 297 296 298 300 298
318 318 317 317 316 316 316 316 315 315 315 316 318 319 319 320 320 320 310 310 308 309 303 310 309 309 312 312 307 311 316 308 307 302 304 301 299 303 303 302 299 298 296 296 298 299 300
319 318 318 318 317 316 316 315 315 315 315 315 315 316 318 319 319 313 308 308 312 313 304 305 308 307 308 310 306 308 311 309 305 302 302 299 301 301 301 299 297 298 296 296 294 298 301
318 319 319 318 317 316 316 315 314 314 314 315 315 316 315 316 315 317 306 310 313 315 298 298 300 306 308 309 304 312 313 309 304 301 302 301 304 299 299 298 299 295 299 297 295 295 292
316 316 317 317 317 316 316 315 315 314 315 315 315 315 315 316 314 315 310 314 316 311 284 299 301 310 308 304 305 304 313 308 302 301 301 299 298 297 297 298 300 296 299 297 297 296 296
314 315 315 316 316 316 315 316 314 314 315 315 315 314 314 308 308 315 315 318 313 295 284 296 302 301 300 303 302 303 305 307 307 302 300 301 300 300 299 298 299 301 299 298 299 297 291
314 314 314 314 315 315 315 314 314 314 313 314 314 314 310 309 301 313 314 308 294 288 296 294 297 300 300 298 299 300 300 299 297 294 294 298 298 299 300 297 299 299 295 291 289 291 291
315 315 315 315 314 314 314 314 313 311 312 313 314 312 309 307 309 312 310 298 286 293 293 300 299 298 296 298 298 298 298 297 301 299 296 294 291 297 299 298 296 296 295 292 287 287 291
315 315 314 315 315 314 314 313 312 311 312 312 310 308 305 306 311 314 303 287 290 293 296 294 296 295 295 297 298 297 297 297 299 299 294 293 293 297 298 298 299 295 292 297 291 291 290
311 313 313 313 314 314 314 313 311 311 311 311 306 303 301 307 310 308 295 290 294 300 298 297 291 295 293 295 293 295 295 300 298 301 303 297 291 295 297 300 299 298 299 291 293 287 285
310 311 311 313 313 313 313 312 311 310 311 309 304 295 303 312 312 299 287 289 294 301 299 293 293 293 294 295 295 293 295 298 300 299 302 300 296 292 296 295 295 294 294 295 296 293 288
310 310 310 311 311 311 311 312 311 311 310 307 300 289 305 312 294 295 289 291 295 294 300 296 296 294 294 296 294 294 294 298 300 299 295 301 297 291 292 295 297 299 296 296 290 289 292
309 309 309 309 310 310 310 310 311 310 309 305 295 294 304 303 287 289 292 292 294 293 294 294 293 297 296 294 292 295 297 299 299 298 297 297 295 289 289 293 295 293 296 297 295 295 291
307 307 307 308 308 308 309 309 310 310 309 304 295 287 294 297 294 289 286 286 286 293 293 295 293 295 293 291 294 294 293 295 297 299 307 302 296 294 291 293 296 291 294 296 294 291 292
306 306 306 307 307 308 308 308 308 309 310 302 294 289 292 286 287 289 289 287 285 285 290 293 292 292 292 287 290 291 294 293 295 297 299 298 293 295 295 294 294 294 293 293 293 294 291
305 305 306 306 306 308 308 309 307 308 308 298 289 290 293 289 290 288 288 286 286 287 288 287 285 287 293 290 291 291 289 291 292 297 294 296 294 293 292 293 293 291 293 294 294 295 295
304 305 305 305 306 307 307 307 307 307 306 296 296 298 294 288 287 285 286 286 286 289 289 290 289 288 288 293 297 298 295 295 293 291 292 294 294 291 289 292 291 289 293 293 295 296 296
303 304 305 305 305 306 306 307 307 306 304 299 299 298 289 283 286 285 286 287 286 287 286 290 291 288 292 297 300 298 296 294 293 293 295 293 293 293 290 290 284 295 298 299 295 297 298
303 303 304 305 306 303 305 306 307 305 305 300 299 296 291 285 287 286 286 287 288 289 288 289 292 295 298 293 288 287 287 288 289 293 294 294 294 291 288 287 293 292 293 295 294 296 300
302 303 303 304 305 303 301 304 304 305 304 301 301 303 294 286 285 288 287 288 285 286 287 290 294 297 295 289 288 283 282 286 285 287 290 292 293 293 289 287 285 296 298 300 300 293 304
301 302 303 303 303 303 304 303 304 304 305 304 301 303 295 286 291 291 287 287 290 289 287 290 291 292 295 286 285 285 285 290 285 285 285 286 289 288 291 289 293 297 297 301 292 296 303
301 302 302 302 304 302 302 302 303 304 304 303 301 304 296 290 292 293 294 290 291 291 286 291 290 291 290 284 286 287 288 289 289 292 290 288 288 288 291 289 287 297 296 295 303 301 301
300 301 301 302 303 302 302 302 302 303 304 304 297 304 304 293 292 297 297 298 297 295 293 292 290 288 291 289 289 291 289 291 290 286 293 287 293 292 294 293 299 298 303 302 301 302 300

GFSGBSN_sfc_thetae_144.txt.gz
Theta_e
326 326 326 327 328 328 327 326 326 327 328 329 329 329 329 329 328 328 328 328 328 328 328 326 325 326 322 311 310 330 345 342 326 322 315 313 310 310 306 308 308 305 306 308 309 310 309
322 322 323 323 324 324 324 323 322 322 323 324 325 326 326 326 326 327 328 328 328 328 328 325 325 326 314 303 321 326 323 323 320 318 315 314 310 311 308 306 305 309 308 308 309 308 309
319 319 319 320 320 320 320 320 320 320 320 321 324 324 323 323 323 324 324 326 327 327 326 325 325 323 310 306 319 324 322 321 321 318 313 315 313 309 310 306 311 308 303 305 306 307 306
319 319 319 319 319 319 318 318 317 318 318 318 319 320 320 320 321 322 323 324 324 326 325 325 326 319 306 318 320 318 321 319 320 319 318 318 317 311 308 310 308 303 303 297 304 305 306
319 319 319 319 318 318 318 318 317 317 317 317 317 317 316 316 318 319 320 322 324 326 325 327 319 314 305 321 312 317 321 315 316 317 318 317 316 308 308 302 298 301 294 296 300 306 304
319 319 319 318 318 318 318 317 316 316 316 316 316 317 317 317 317 318 317 322 325 320 323 323 319 309 311 307 313 314 322 318 313 313 312 310 309 303 303 299 291 295 296 298 296 301 301
320 319 319 318 318 318 317 317 317 316 316 316 316 317 317 317 317 316 315 313 310 310 313 309 309 307 309 313 316 312 318 314 313 310 302 307 300 297 300 302 302 300 298 297 299 303 299
318 319 320 319 318 318 317 317 317 316 316 315 315 316 316 316 315 314 315 308 306 308 300 308 307 309 312 314 306 310 316 307 307 301 304 302 298 303 305 304 302 300 297 296 300 303 298
317 317 318 318 319 319 318 317 317 316 315 315 315 315 316 315 313 317 315 309 316 316 303 304 307 305 306 310 306 306 311 308 304 301 301 298 301 306 304 301 299 299 296 295 296 300 299
315 315 316 316 317 317 317 317 317 316 316 315 315 316 315 315 311 306 311 317 319 317 297 298 302 305 307 309 303 311 312 309 304 300 302 301 304 303 301 299 300 295 301 300 298 294 287
316 316 316 316 316 316 317 317 317 316 316 316 316 315 315 314 304 301 307 311 314 312 284 302 303 312 309 303 305 305 311 308 301 301 302 299 301 300 299 300 301 297 302 299 298 293 291
317 317 317 317 317 317 317 317 317 317 316 316 315 314 314 306 304 305 307 307 311 295 284 297 303 300 301 303 303 307 305 310 308 302 302 301 306 304 302 304 303 303 299 298 297 293 285
314 315 315 316 316 316 316 316 315 315 315 315 314 314 310 307 299 306 305 305 292 286 297 296 298 301 299 299 300 302 300 300 297 293 294 299 300 302 304 298 301 300 294 287 285 285 284
312 312 313 314 313 314 314 315 315 315 315 315 313 312 309 306 308 306 301 298 285 290 292 299 300 300 297 300 299 300 298 296 301 299 295 292 290 299 301 298 295 295 294 289 281 283 287
311 311 312 312 312 312 313 313 313 313 314 313 312 306 304 305 308 306 295 287 286 290 294 295 297 292 294 298 298 297 296 296 300 301 293 293 293 302 302 301 299 295 291 297 290 290 285
308 309 309 310 311 311 311 311 311 311 313 312 305 302 301 307 306 301 290 285 288 294 295 294 290 294 290 294 294 295 295 299 298 302 303 297 291 299 299 301 300 297 299 289 289 281 281
307 307 307 307 309 311 310 310 310 310 311 311 303 296 302 307 304 295 285 286 288 293 293 289 290 292 293 292 293 293 295 299 301 301 302 299 295 294 296 294 293 294 293 294 293 290 283
306 307 307 307 307 308 308 309 309 309 309 307 299 289 303 305 292 292 288 289 293 291 294 291 292 290 289 293 292 292 293 297 302 301 296 300 295 290 291 298 299 297 294 295 288 287 289
305 305 306 306 306 306 306 307 307 308 307 303 293 293 303 301 285 287 291 290 292 290 290 290 290 292 293 291 288 293 295 300 300 298 298 299 293 287 289 292 295 293 296 296 295 293 288
304 304 305 305 304 305 305 306 306 307 307 303 293 285 293 296 295 290 288 288 287 293 291 293 291 292 290 289 291 290 292 297 298 299 304 301 294 291 286 290 293 290 293 295 294 289 288
304 304 304 304 304 304 304 305 305 306 306 301 293 287 291 284 287 290 290 288 286 286 291 291 288 288 286 284 287 287 291 292 295 300 298 296 291 293 294 295 296 294 293 293 292 293 289
303 304 304 304 304 303 304 304 304 305 305 296 288 287 291 288 289 284 288 287 287 287 287 286 286 287 288 285 286 285 288 289 290 295 295 296 290 293 291 295 295 293 295 294 294 295 294
304 304 303 303 303 304 304 304 304 305 304 294 296 296 290 287 286 285 286 288 288 290 290 290 289 287 286 288 290 292 292 293 293 290 292 291 290 290 286 293 293 289 293 294 295 296 296
303 303 303 303 303 303 304 303 304 304 304 298 297 294 287 281 284 284 286 289 289 289 287 290 290 287 291 294 294 293 292 291 291 291 294 288 288 289 287 289 282 293 298 298 296 298 298
303 303 303 303 303 303 303 303 304 304 304 300 300 292 286 283 286 286 286 286 289 291 289 289 290 292 294 290 285 283 283 284 286 289 291 293 288 285 284 285 289 293 296 296 294 294 300
303 303 303 302 303 303 303 303 303 303 304 301 300 300 293 286 285 289 287 288 286 286 287 288 292 294 293 289 285 278 275 281 282 286 292 293 291 287 286 283 281 292 298 300 300 290 300
302 302 302 302 302 302 302 303 303 303 302 295 295 299 292 287 290 292 288 287 289 288 286 288 289 289 292 285 281 278 278 284 279 280 284 286 286 282 284 284 289 297 300 301 289 291 301
302 302 302 302 302 302 302 303 303 303 303 297 294 296 292 287 289 292 293 290 290 289 285 288 287 288 288 282 282 281 280 282 281 284 285 285 283 283 285 283 282 299 298 294 297 301 301
301 302 302 301 301 301 302 302 302 302 304 302 296 298 299 293 292 297 296 296 295 294 290 291 288 288 290 286 285 286 283 284 284 278 288 282 289 286 288 287 297 300 298 301 299 299 300

GFSGBSN_sfc_thetae_150.txt.gz
Theta_e
321 321 321 321 321 320 320 319 319 319 319 319 319 319 318 318 318 318 318 320 319 321 323 325 326 326 318 306 304 318 346 347 335 319 314 311 304 302 298 300 302 299 301 304 305 305 305
320 320 320 320 320 319 319 318 318 318 318 319 319 318 318 318 318 318 318 319 319 320 321 322 326 325 309 294 310 333 334 328 322 317 313 311 305 306 301 300 299 301 302 302 304 304 304
320 320 320 319 319 319 319 318 318 318 318 318 318 318 318 317 318 318 318 319 319 320 321 322 325 321 310 301 313 332 326 320 318 316 311 311 309 302 302 299 304 303 298 299 300 302 301
319 319 319 319 319 319 319 319 318 318 318 318 318 317 317 317 318 318 319 319 320 321 323 325 325 316 301 312 313 323 320 314 317 316 315 313 309 305 302 302 301 297 296 291 298 301 302
318 319 319 319 319 319 319 319 319 318 318 318 318 317 317 317 318 318 318 320 321 323 325 326 314 309 302 319 309 315 317 313 314 314 312 314 309 302 302 294 292 292 287 290 295 300 300
320 320 321 320 319 319 319 319 319 318 318 318 317 318 318 317 317 317 318 319 320 320 322 323 319 303 306 305 309 311 313 316 312 309 308 306 302 296 294 291 285 288 288 291 291 296 298
318 318 319 319 320 320 320 320 319 318 318 317 317 317 317 316 316 316 314 306 303 302 306 304 305 303 306 310 311 307 313 312 309 304 297 301 295 291 294 295 295 293 291 290 293 298 295
316 317 317 317 318 318 318 318 317 317 317 317 316 316 316 316 314 315 308 305 301 305 297 307 307 305 308 310 304 306 313 305 302 297 299 296 293 298 299 299 297 295 292 291 294 298 294
314 314 315 316 316 316 316 316 316 316 316 316 316 316 316 315 314 304 301 298 304 303 297 302 306 304 305 306 301 304 307 305 301 296 297 293 297 302 299 297 295 294 292 291 292 295 294
315 315 316 316 316 316 317 317 316 316 316 316 316 316 315 314 302 301 300 303 302 302 290 294 302 305 305 304 298 308 308 307 300 298 297 295 301 299 297 296 297 291 297 296 295 290 284
317 317 316 316 316 316 315 315 315 316 316 317 317 316 315 311 300 296 300 303 303 304 277 295 300 308 304 300 301 302 309 305 300 298 297 294 297 296 295 297 297 294 298 296 294 288 286
315 314 313 313 313 313 313 314 313 314 315 315 315 315 315 306 302 301 304 304 301 289 277 293 301 298 295 298 299 304 303 306 305 299 297 297 302 300 298 300 299 299 295 292 290 287 281
311 311 311 312 312 312 312 313 313 313 313 314 314 313 311 309 298 305 305 297 289 283 292 291 295 297 295 294 295 297 296 296 294 291 291 295 296 299 300 296 297 295 289 280 280 279 280
311 310 310 310 309 309 310 310 311 312 312 313 312 312 309 308 307 305 297 294 283 286 290 295 292 293 291 296 295 295 293 290 295 294 290 288 285 295 299 297 293 291 289 281 275 276 280
310 308 306 306 307 308 308 309 309 310 310 311 309 301 301 303 305 300 289 282 284 288 291 288 290 290 289 291 291 292 290 291 293 295 290 288 288 297 299 299 298 291 287 292 284 283 279
308 306 305 306 307 307 307 307 308 308 309 310 297 295 297 303 302 295 284 280 284 290 288 287 282 287 286 286 288 289 288 293 294 296 298 292 288 296 297 297 296 294 295 286 284 278 277
306 305 305 305 304 305 305 306 306 307 307 307 294 288 295 301 298 290 283 280 285 289 289 286 285 284 283 283 285 287 290 294 295 295 296 293 292 290 293 291 290 289 288 289 288 285 279
305 305 304 304 303 303 303 303 304 305 306 300 291 282 295 300 286 290 285 287 292 289 291 288 287 286 283 284 282 282 285 291 297 295 289 293 288 287 291 294 296 296 293 289 283 281 283
306 305 303 303 303 305 303 302 303 305 304 294 290 290 295 294 280 278 285 287 289 288 288 288 286 288 287 284 281 284 287 295 296 294 291 293 287 282 284 289 292 289 290 292 289 286 282
305 305 304 303 303 304 305 303 303 305 305 294 286 283 289 288 286 282 281 282 282 290 289 290 288 289 286 284 286 284 286 291 294 295 299 295 289 284 281 285 288 286 290 292 290 286 286
305 304 303 303 304 303 303 303 302 302 303 292 286 280 287 281 282 284 284 284 282 282 288 289 287 286 286 282 283 283 285 286 291 295 293 293 284 287 287 289 289 289 291 291 289 290 287
304 304 304 303 303 303 302 303 303 303 303 289 279 282 287 283 284 282 284 283 282 283 284 283 283 286 285 283 283 282 283 284 284 288 289 292 284 286 283 289 290 288 291 292 292 292 291
304 304 303 303 303 303 302 305 305 304 300 288 288 289 287 284 282 281 280 282 282 285 285 287 286 285 283 285 288 289 286 286 288 286 285 284 284 282 277 286 286 284 289 291 291 292 292
304 304 304 304 304 303 303 303 304 304 301 292 289 289 285 279 281 281 283 284 283 284 282 285 287 286 289 295 292 287 286 287 288 287 288 284 281 281 276 280 273 287 294 294 293 294 295
304 304 304 303 303 303 303 304 304 304 303 292 292 291 285 280 283 282 282 282 284 286 284 285 288 290 294 290 283 278 278 277 281 285 285 286 282 272 272 276 281 285 291 291 289 291 297
305 304 304 304 304 303 303 302 303 303 304 295 293 295 291 283 280 285 284 285 281 282 283 285 290 292 292 286 281 271 270 274 275 279 284 285 284 279 272 270 271 285 292 294 295 287 297
305 305 304 304 304 304 303 303 303 304 303 296 292 297 292 283 287 287 284 284 287 285 281 284 287 288 291 282 278 274 274 279 274 274 276 276 281 277 278 273 278 289 291 294 284 286 297
305 305 305 304 304 303 302 303 303 302 302 299 292 297 293 285 287 290 292 289 289 287 282 286 286 285 284 279 278 276 276 277 276 277 277 275 272 274 279 276 274 289 291 285 290 295 295
306 306 306 304 303 303 302 302 302 302 302 302 291 298 297 286 286 294 295 296 294 293 289 289 286 285 286 281 278 279 277 278 277 273 280 275 279 275 280 280 288 291 289 292 295 296 296